Year,Month,Day,Hour,Minute,Value (Times are PST for temperature in C)
2017,05,22,00,00,15.90
2017,05,22,00,01,15.90
2017,05,22,00,02,15.90
2017,05,22,00,03,15.90
2017,05,22,00,04,15.90
2017,05,22,00,05,15.90
2017,05,22,00,06,15.90
2017,05,22,00,07,15.90
2017,05,22,00,08,15.90
2017,05,22,00,09,15.90
2017,05,22,00,10,15.90
2017,05,22,00,11,15.90
2017,05,22,00,12,15.90
2017,05,22,00,13,15.90
2017,05,22,00,14,15.90
2017,05,22,00,15,15.90
2017,05,22,00,16,15.90
2017,05,22,00,17,15.90
2017,05,22,00,18,15.80
2017,05,22,00,19,15.80
2017,05,22,00,20,15.80
2017,05,22,00,21,15.90
2017,05,22,00,22,15.80
2017,05,22,00,23,15.90
2017,05,22,00,24,15.90
2017,05,22,00,25,15.90
2017,05,22,00,26,15.80
2017,05,22,00,27,15.90
2017,05,22,00,28,15.90
2017,05,22,00,29,15.90
2017,05,22,00,30,15.80
2017,05,22,00,31,15.90
2017,05,22,00,32,15.80
2017,05,22,00,33,15.80
2017,05,22,00,34,15.80
2017,05,22,00,35,15.80
2017,05,22,00,36,15.80
2017,05,22,00,37,15.80
2017,05,22,00,38,15.80
2017,05,22,00,39,15.80
2017,05,22,00,40,15.80
2017,05,22,00,41,15.80
2017,05,22,00,42,15.80
2017,05,22,00,43,15.80
2017,05,22,00,44,15.80
2017,05,22,00,45,15.80
2017,05,22,00,46,15.80
2017,05,22,00,47,15.80
2017,05,22,00,48,15.80
2017,05,22,00,49,15.80
2017,05,22,00,50,15.80
2017,05,22,00,51,15.80
2017,05,22,00,52,15.80
2017,05,22,00,53,15.80
2017,05,22,00,54,15.80
2017,05,22,00,55,15.80
2017,05,22,00,56,15.80
2017,05,22,00,57,15.80
2017,05,22,00,58,15.80
2017,05,22,00,59,15.80
2017,05,22,01,00,15.80
2017,05,22,01,01,15.80
2017,05,22,01,02,15.80
2017,05,22,01,03,15.80
2017,05,22,01,04,15.80
2017,05,22,01,05,15.80
2017,05,22,01,06,15.80
2017,05,22,01,07,15.80
2017,05,22,01,08,15.80
2017,05,22,01,09,15.80
2017,05,22,01,10,15.80
2017,05,22,01,11,15.80
2017,05,22,01,12,15.80
2017,05,22,01,13,15.70
2017,05,22,01,14,15.70
2017,05,22,01,15,15.70
2017,05,22,01,16,15.70
2017,05,22,01,17,15.70
2017,05,22,01,18,15.70
2017,05,22,01,19,15.70
2017,05,22,01,20,15.70
2017,05,22,01,21,15.60
2017,05,22,01,22,15.60
2017,05,22,01,23,15.60
2017,05,22,01,24,15.50
2017,05,22,01,25,15.50
2017,05,22,01,26,15.50
2017,05,22,01,27,15.40
2017,05,22,01,28,15.40
2017,05,22,01,29,15.30
2017,05,22,01,30,15.30
2017,05,22,01,31,15.30
2017,05,22,01,32,15.30
2017,05,22,01,33,15.30
2017,05,22,01,34,15.30
2017,05,22,01,35,15.30
2017,05,22,01,36,15.30
2017,05,22,01,37,15.30
2017,05,22,01,38,15.30
2017,05,22,01,39,15.30
2017,05,22,01,40,15.30
2017,05,22,01,41,15.30
2017,05,22,01,42,15.30
2017,05,22,01,43,15.30
2017,05,22,01,44,15.30
2017,05,22,01,45,15.30
2017,05,22,01,46,15.30
2017,05,22,01,47,15.30
2017,05,22,01,48,15.30
2017,05,22,01,49,15.30
2017,05,22,01,50,15.30
2017,05,22,01,51,15.30
2017,05,22,01,52,15.40
2017,05,22,01,53,15.40
2017,05,22,01,54,15.40
2017,05,22,01,55,15.40
2017,05,22,01,56,15.40
2017,05,22,01,57,15.40
2017,05,22,01,58,15.40
2017,05,22,01,59,15.40
2017,05,22,02,00,15.30
2017,05,22,02,01,15.30
2017,05,22,02,02,15.30
2017,05,22,02,03,15.30
2017,05,22,02,04,15.30
2017,05,22,02,05,15.30
2017,05,22,02,06,15.30
2017,05,22,02,07,15.30
2017,05,22,02,08,15.30
2017,05,22,02,09,15.30
2017,05,22,02,10,15.30
2017,05,22,02,11,15.30
2017,05,22,02,12,15.30
2017,05,22,02,13,15.30
2017,05,22,02,14,15.30
2017,05,22,02,15,15.20
2017,05,22,02,16,15.20
2017,05,22,02,17,15.20
2017,05,22,02,18,15.20
2017,05,22,02,19,15.10
2017,05,22,02,20,15.10
2017,05,22,02,21,15.10
2017,05,22,02,22,15.10
2017,05,22,02,23,15.00
2017,05,22,02,24,15.00
2017,05,22,02,25,15.00
2017,05,22,02,26,14.90
2017,05,22,02,27,14.90
2017,05,22,02,28,14.90
2017,05,22,02,29,14.90
2017,05,22,02,30,14.80
2017,05,22,02,31,14.80
2017,05,22,02,32,14.80
2017,05,22,02,33,14.80
2017,05,22,02,34,14.80
2017,05,22,02,35,14.70
2017,05,22,02,36,14.70
2017,05,22,02,37,14.70
2017,05,22,02,38,14.60
2017,05,22,02,39,14.60
2017,05,22,02,40,14.60
2017,05,22,02,41,14.50
2017,05,22,02,42,14.50
2017,05,22,02,43,14.50
2017,05,22,02,44,14.40
2017,05,22,02,45,14.40
2017,05,22,02,46,14.40
2017,05,22,02,47,14.30
2017,05,22,02,48,14.30
2017,05,22,02,49,14.30
2017,05,22,02,50,14.30
2017,05,22,02,51,14.30
2017,05,22,02,52,14.20
2017,05,22,02,53,14.20
2017,05,22,02,54,14.20
2017,05,22,02,55,14.20
2017,05,22,02,56,14.20
2017,05,22,02,57,14.20
2017,05,22,02,58,14.10
2017,05,22,02,59,14.10
2017,05,22,03,00,14.10
2017,05,22,03,01,14.10
2017,05,22,03,02,14.00
2017,05,22,03,03,14.00
2017,05,22,03,04,14.00
2017,05,22,03,05,13.90
2017,05,22,03,06,13.90
2017,05,22,03,07,13.90
2017,05,22,03,08,13.90
2017,05,22,03,09,13.80
2017,05,22,03,10,13.80
2017,05,22,03,11,13.80
2017,05,22,03,12,13.70
2017,05,22,03,13,13.70
2017,05,22,03,14,13.70
2017,05,22,03,15,13.70
2017,05,22,03,16,13.60
2017,05,22,03,17,13.60
2017,05,22,03,18,13.60
2017,05,22,03,19,13.60
2017,05,22,03,20,13.60
2017,05,22,03,21,13.50
2017,05,22,03,22,13.50
2017,05,22,03,23,13.50
2017,05,22,03,24,13.50
2017,05,22,03,25,13.40
2017,05,22,03,26,13.40
2017,05,22,03,27,13.40
2017,05,22,03,28,13.40
2017,05,22,03,29,13.30
2017,05,22,03,30,13.30
2017,05,22,03,31,13.30
2017,05,22,03,32,13.30
2017,05,22,03,33,13.30
2017,05,22,03,34,13.20
2017,05,22,03,35,13.20
2017,05,22,03,36,13.20
2017,05,22,03,37,13.20
2017,05,22,03,38,13.20
2017,05,22,03,39,13.20
2017,05,22,03,40,13.10
2017,05,22,03,41,13.10
2017,05,22,03,42,13.10
2017,05,22,03,43,13.10
2017,05,22,03,44,13.10
2017,05,22,03,45,13.00
2017,05,22,03,46,13.00
2017,05,22,03,47,13.00
2017,05,22,03,48,12.90
2017,05,22,03,49,12.90
2017,05,22,03,50,12.90
2017,05,22,03,51,12.90
2017,05,22,03,52,12.90
2017,05,22,03,53,12.90
2017,05,22,03,54,12.90
2017,05,22,03,55,12.80
2017,05,22,03,56,12.80
2017,05,22,03,57,12.80
2017,05,22,03,58,12.80
2017,05,22,03,59,12.80
2017,05,22,04,00,12.80
2017,05,22,04,01,12.80
2017,05,22,04,02,12.70
2017,05,22,04,03,12.70
2017,05,22,04,04,12.70
2017,05,22,04,05,12.70
2017,05,22,04,06,12.70
2017,05,22,04,07,12.70
2017,05,22,04,08,12.70
2017,05,22,04,09,12.60
2017,05,22,04,10,12.60
2017,05,22,04,11,12.60
2017,05,22,04,12,12.60
2017,05,22,04,13,12.60
2017,05,22,04,14,12.60
2017,05,22,04,15,12.60
2017,05,22,04,16,12.60
2017,05,22,04,17,12.60
2017,05,22,04,18,12.60
2017,05,22,04,19,12.50
2017,05,22,04,20,12.50
2017,05,22,04,21,12.50
2017,05,22,04,22,12.50
2017,05,22,04,23,12.50
2017,05,22,04,24,12.50
2017,05,22,04,25,12.40
2017,05,22,04,26,12.40
2017,05,22,04,27,12.40
2017,05,22,04,28,12.40
2017,05,22,04,29,12.40
2017,05,22,04,30,12.40
2017,05,22,04,31,12.40
2017,05,22,04,32,12.40
2017,05,22,04,33,12.40
2017,05,22,04,34,12.30
2017,05,22,04,35,12.30
2017,05,22,04,36,12.30
2017,05,22,04,37,12.30
2017,05,22,04,38,12.30
2017,05,22,04,39,12.30
2017,05,22,04,40,12.30
2017,05,22,04,41,12.30
2017,05,22,04,42,12.30
2017,05,22,04,43,12.30
2017,05,22,04,44,12.30
2017,05,22,04,45,12.20
2017,05,22,04,46,12.20
2017,05,22,04,47,12.20
2017,05,22,04,48,12.20
2017,05,22,04,49,12.20
2017,05,22,04,50,12.20
2017,05,22,04,51,12.20
2017,05,22,04,52,12.20
2017,05,22,04,53,12.20
2017,05,22,04,54,12.20
2017,05,22,04,55,12.20
2017,05,22,04,56,12.20
2017,05,22,04,57,12.20
2017,05,22,04,58,12.20
2017,05,22,04,59,12.20
2017,05,22,05,00,12.20
2017,05,22,05,01,12.20
2017,05,22,05,02,12.20
2017,05,22,05,03,12.20
2017,05,22,05,04,12.20
2017,05,22,05,05,12.20
2017,05,22,05,06,12.20
2017,05,22,05,07,12.20
2017,05,22,05,08,12.20
2017,05,22,05,09,12.10
2017,05,22,05,10,12.10
2017,05,22,05,11,12.10
2017,05,22,05,12,12.10
2017,05,22,05,13,12.10
2017,05,22,05,14,12.10
2017,05,22,05,15,12.10
2017,05,22,05,16,12.10
2017,05,22,05,17,12.10
2017,05,22,05,18,12.10
2017,05,22,05,19,12.10
2017,05,22,05,20,12.10
2017,05,22,05,21,12.10
2017,05,22,05,22,12.10
2017,05,22,05,23,12.10
2017,05,22,05,24,12.10
2017,05,22,05,25,12.10
2017,05,22,05,26,12.10
2017,05,22,05,27,12.10
2017,05,22,05,28,12.10
2017,05,22,05,29,12.10
2017,05,22,05,30,12.10
2017,05,22,05,31,12.10
2017,05,22,05,32,12.10
2017,05,22,05,33,12.10
2017,05,22,05,34,12.10
2017,05,22,05,35,12.10
2017,05,22,05,36,12.10
2017,05,22,05,37,12.10
2017,05,22,05,38,12.10
2017,05,22,05,39,12.10
2017,05,22,05,40,12.10
2017,05,22,05,41,12.10
2017,05,22,05,42,12.10
2017,05,22,05,43,12.10
2017,05,22,05,44,12.10
2017,05,22,05,45,12.10
2017,05,22,05,46,12.10
2017,05,22,05,47,12.10
2017,05,22,05,48,12.10
2017,05,22,05,49,12.10
2017,05,22,05,50,12.10
2017,05,22,05,51,12.10
2017,05,22,05,52,12.10
2017,05,22,05,53,12.10
2017,05,22,05,54,12.10
2017,05,22,05,55,12.10
2017,05,22,05,56,12.10
2017,05,22,05,57,12.10
2017,05,22,05,58,12.10
2017,05,22,05,59,12.10
2017,05,22,06,00,12.10
2017,05,22,06,01,12.10
2017,05,22,06,02,12.10
2017,05,22,06,03,12.10
2017,05,22,06,04,12.10
2017,05,22,06,05,12.10
2017,05,22,06,06,12.10
2017,05,22,06,07,12.10
2017,05,22,06,08,12.10
2017,05,22,06,09,12.10
2017,05,22,06,10,12.10
2017,05,22,06,11,12.10
2017,05,22,06,12,12.10
2017,05,22,06,13,12.10
2017,05,22,06,14,12.10
2017,05,22,06,15,12.10
2017,05,22,06,16,12.10
2017,05,22,06,17,12.10
2017,05,22,06,18,12.10
2017,05,22,06,19,12.10
2017,05,22,06,20,12.10
2017,05,22,06,21,12.10
2017,05,22,06,22,12.10
2017,05,22,06,23,12.10
2017,05,22,06,24,12.10
2017,05,22,06,25,12.10
2017,05,22,06,26,12.10
2017,05,22,06,27,12.10
2017,05,22,06,28,12.10
2017,05,22,06,29,12.10
2017,05,22,06,30,12.10
2017,05,22,06,31,12.10
2017,05,22,06,32,12.20
2017,05,22,06,33,12.20
2017,05,22,06,34,12.20
2017,05,22,06,35,12.20
2017,05,22,06,36,12.20
2017,05,22,06,37,12.20
2017,05,22,06,38,12.20
2017,05,22,06,39,12.30
2017,05,22,06,40,12.30
2017,05,22,06,41,12.30
2017,05,22,06,42,12.30
2017,05,22,06,43,12.30
2017,05,22,06,44,12.30
2017,05,22,06,45,12.40
2017,05,22,06,46,12.40
2017,05,22,06,47,12.40
2017,05,22,06,48,12.40
2017,05,22,06,49,12.50
2017,05,22,06,50,12.50
2017,05,22,06,51,12.50
2017,05,22,06,52,12.50
2017,05,22,06,53,12.60
2017,05,22,06,54,12.60
2017,05,22,06,55,12.60
2017,05,22,06,56,12.70
2017,05,22,06,57,12.70
2017,05,22,06,58,12.70
2017,05,22,06,59,12.80
2017,05,22,07,00,12.80
2017,05,22,07,01,12.90
2017,05,22,07,02,13.00
2017,05,22,07,03,13.10
2017,05,22,07,04,13.20
2017,05,22,07,05,13.20
2017,05,22,07,06,13.30
2017,05,22,07,07,13.40
2017,05,22,07,08,13.40
2017,05,22,07,09,13.50
2017,05,22,07,10,13.60
2017,05,22,07,11,13.60
2017,05,22,07,12,13.70
2017,05,22,07,13,13.80
2017,05,22,07,14,13.90
2017,05,22,07,15,14.00
2017,05,22,07,16,14.10
2017,05,22,07,17,14.20
2017,05,22,07,18,14.30
2017,05,22,07,19,14.40
2017,05,22,07,20,14.50
2017,05,22,07,21,14.60
2017,05,22,07,22,14.70
2017,05,22,07,23,14.80
2017,05,22,07,24,14.90
2017,05,22,07,25,15.00
2017,05,22,07,26,15.10
2017,05,22,07,27,15.20
2017,05,22,07,28,15.30
2017,05,22,07,29,15.40
2017,05,22,07,30,15.50
2017,05,22,07,31,15.60
2017,05,22,07,32,15.70
2017,05,22,07,33,15.80
2017,05,22,07,34,15.80
2017,05,22,07,35,15.90
2017,05,22,07,36,16.00
2017,05,22,07,37,16.00
2017,05,22,07,38,16.10
2017,05,22,07,39,16.20
2017,05,22,07,40,16.20
2017,05,22,07,41,16.30
2017,05,22,07,42,16.30
2017,05,22,07,43,16.40
2017,05,22,07,44,16.40
2017,05,22,07,45,16.50
2017,05,22,07,46,16.60
2017,05,22,07,47,16.60
2017,05,22,07,48,16.70
2017,05,22,07,49,16.80
2017,05,22,07,50,16.80
2017,05,22,07,51,16.90
2017,05,22,07,52,16.90
2017,05,22,07,53,17.00
2017,05,22,07,54,17.00
2017,05,22,07,55,17.10
2017,05,22,07,56,17.10
2017,05,22,07,57,17.20
2017,05,22,07,58,17.20
2017,05,22,07,59,17.20
2017,05,22,08,00,17.30
2017,05,22,08,01,17.30
2017,05,22,08,02,17.30
2017,05,22,08,03,17.40
2017,05,22,08,04,17.40
2017,05,22,08,05,17.50
2017,05,22,08,06,17.60
2017,05,22,08,07,17.60
2017,05,22,08,08,17.70
2017,05,22,08,09,17.80
2017,05,22,08,10,17.80
2017,05,22,08,11,17.90
2017,05,22,08,12,17.90
2017,05,22,08,13,18.00
2017,05,22,08,14,18.00
2017,05,22,08,15,18.10
2017,05,22,08,16,18.10
2017,05,22,08,17,18.20
2017,05,22,08,18,18.20
2017,05,22,08,19,18.30
2017,05,22,08,20,18.30
2017,05,22,08,21,18.40
2017,05,22,08,22,18.40
2017,05,22,08,23,18.50
2017,05,22,08,24,18.50
2017,05,22,08,25,18.60
2017,05,22,08,26,18.60
2017,05,22,08,27,18.70
2017,05,22,08,28,18.70
2017,05,22,08,29,18.80
2017,05,22,08,30,18.80
2017,05,22,08,31,18.80
2017,05,22,08,32,18.90
2017,05,22,08,33,18.90
2017,05,22,08,34,19.00
2017,05,22,08,35,19.10
2017,05,22,08,36,19.10
2017,05,22,08,37,19.20
2017,05,22,08,38,19.20
2017,05,22,08,39,19.30
2017,05,22,08,40,19.30
2017,05,22,08,41,19.40
2017,05,22,08,42,19.50
2017,05,22,08,43,19.50
2017,05,22,08,44,19.60
2017,05,22,08,45,19.70
2017,05,22,08,46,19.70
2017,05,22,08,47,19.80
2017,05,22,08,48,19.80
2017,05,22,08,49,19.80
2017,05,22,08,50,19.90
2017,05,22,08,51,19.90
2017,05,22,08,52,19.90
2017,05,22,08,53,20.00
2017,05,22,08,54,20.00
2017,05,22,08,55,20.00
2017,05,22,08,56,20.00
2017,05,22,08,57,20.00
2017,05,22,08,58,20.10
2017,05,22,08,59,20.20
2017,05,22,09,00,20.30
2017,05,22,09,01,20.40
2017,05,22,09,02,20.40
2017,05,22,09,03,20.50
2017,05,22,09,04,20.50
2017,05,22,09,05,20.60
2017,05,22,09,06,20.60
2017,05,22,09,07,20.60
2017,05,22,09,08,20.70
2017,05,22,09,09,20.80
2017,05,22,09,10,20.80
2017,05,22,09,11,20.90
2017,05,22,09,12,21.00
2017,05,22,09,13,21.20
2017,05,22,09,14,21.20
2017,05,22,09,15,21.30
2017,05,22,09,16,21.40
2017,05,22,09,17,21.50
2017,05,22,09,18,21.50
2017,05,22,09,19,21.60
2017,05,22,09,20,21.70
2017,05,22,09,21,21.80
2017,05,22,09,22,21.80
2017,05,22,09,23,21.90
2017,05,22,09,24,21.90
2017,05,22,09,25,21.90
2017,05,22,09,26,22.00
2017,05,22,09,27,22.10
2017,05,22,09,28,22.20
2017,05,22,09,29,22.30
2017,05,22,09,30,22.30
2017,05,22,09,31,22.30
2017,05,22,09,32,22.30
2017,05,22,09,33,22.40
2017,05,22,09,34,22.40
2017,05,22,09,35,22.50
2017,05,22,09,36,22.60
2017,05,22,09,37,22.60
2017,05,22,09,38,22.60
2017,05,22,09,39,22.60
2017,05,22,09,40,22.60
2017,05,22,09,41,22.50
2017,05,22,09,42,22.50
2017,05,22,09,43,22.40
2017,05,22,09,44,22.30
2017,05,22,09,45,22.20
2017,05,22,09,46,22.10
2017,05,22,09,47,22.10
2017,05,22,09,48,22.10
2017,05,22,09,49,22.00
2017,05,22,09,50,21.90
2017,05,22,09,51,21.90
2017,05,22,09,52,21.90
2017,05,22,09,53,21.90
2017,05,22,09,54,21.80
2017,05,22,09,55,21.80
2017,05,22,09,56,21.70
2017,05,22,09,57,21.70
2017,05,22,09,58,21.70
2017,05,22,09,59,21.70
2017,05,22,10,00,21.70
2017,05,22,10,01,21.80
2017,05,22,10,02,21.80
2017,05,22,10,03,21.80
2017,05,22,10,04,21.90
2017,05,22,10,05,21.90
2017,05,22,10,06,22.00
2017,05,22,10,07,22.00
2017,05,22,10,08,22.00
2017,05,22,10,09,21.90
2017,05,22,10,10,22.00
2017,05,22,10,11,22.00
2017,05,22,10,12,22.10
2017,05,22,10,13,22.20
2017,05,22,10,14,22.20
2017,05,22,10,15,22.30
2017,05,22,10,16,22.40
2017,05,22,10,17,22.60
2017,05,22,10,18,22.60
2017,05,22,10,19,22.70
2017,05,22,10,20,22.60
2017,05,22,10,21,22.60
2017,05,22,10,22,22.60
2017,05,22,10,23,22.60
2017,05,22,10,24,22.60
2017,05,22,10,25,22.50
2017,05,22,10,26,22.50
2017,05,22,10,27,22.40
2017,05,22,10,28,22.40
2017,05,22,10,29,22.30
2017,05,22,10,30,22.30
2017,05,22,10,31,22.30
2017,05,22,10,32,22.30
2017,05,22,10,33,22.30
2017,05,22,10,34,22.30
2017,05,22,10,35,22.20
2017,05,22,10,36,22.20
2017,05,22,10,37,22.20
2017,05,22,10,38,22.20
2017,05,22,10,39,22.30
2017,05,22,10,40,22.30
2017,05,22,10,41,22.30
2017,05,22,10,42,22.30
2017,05,22,10,43,22.40
2017,05,22,10,44,22.40
2017,05,22,10,45,22.40
2017,05,22,10,46,22.40
2017,05,22,10,47,22.40
2017,05,22,10,48,22.40
2017,05,22,10,49,22.40
2017,05,22,10,50,22.40
2017,05,22,10,51,22.40
2017,05,22,10,52,22.50
2017,05,22,10,53,22.50
2017,05,22,10,54,22.60
2017,05,22,10,55,22.70
2017,05,22,10,56,22.80
2017,05,22,10,57,22.80
2017,05,22,10,58,22.80
2017,05,22,10,59,22.90
2017,05,22,11,00,23.00
2017,05,22,11,01,23.10
2017,05,22,11,02,23.20
2017,05,22,11,03,23.30
2017,05,22,11,04,23.30
2017,05,22,11,05,23.30
2017,05,22,11,06,23.30
2017,05,22,11,07,23.40
2017,05,22,11,08,23.40
2017,05,22,11,09,23.50
2017,05,22,11,10,23.60
2017,05,22,11,11,23.60
2017,05,22,11,12,23.70
2017,05,22,11,13,23.80
2017,05,22,11,14,23.70
2017,05,22,11,15,23.70
2017,05,22,11,16,23.70
2017,05,22,11,17,23.70
2017,05,22,11,18,23.60
2017,05,22,11,19,23.60
2017,05,22,11,20,23.60
2017,05,22,11,21,23.50
2017,05,22,11,22,23.50
2017,05,22,11,23,23.40
2017,05,22,11,24,23.50
2017,05,22,11,25,23.50
2017,05,22,11,26,23.70
2017,05,22,11,27,23.80
2017,05,22,11,28,23.90
2017,05,22,11,29,23.90
2017,05,22,11,30,23.90
2017,05,22,11,31,23.90
2017,05,22,11,32,23.90
2017,05,22,11,33,24.00
2017,05,22,11,34,24.00
2017,05,22,11,35,24.10
2017,05,22,11,36,24.10
2017,05,22,11,37,24.20
2017,05,22,11,38,24.20
2017,05,22,11,39,24.20
2017,05,22,11,40,24.20
2017,05,22,11,41,24.20
2017,05,22,11,42,24.20
2017,05,22,11,43,24.30
2017,05,22,11,44,24.30
2017,05,22,11,45,24.30
2017,05,22,11,46,24.40
2017,05,22,11,47,24.50
2017,05,22,11,48,24.50
2017,05,22,11,49,24.60
2017,05,22,11,50,24.60
2017,05,22,11,51,24.60
2017,05,22,11,52,24.60
2017,05,22,11,53,24.60
2017,05,22,11,54,24.70
2017,05,22,11,55,24.70
2017,05,22,11,56,24.80
2017,05,22,11,57,24.90
2017,05,22,11,58,25.00
2017,05,22,11,59,25.10
2017,05,22,12,00,25.20
2017,05,22,12,01,25.10
2017,05,22,12,02,25.00
2017,05,22,12,03,25.00
2017,05,22,12,04,25.00
2017,05,22,12,05,25.00
2017,05,22,12,06,25.00
2017,05,22,12,07,24.90
2017,05,22,12,08,24.90
2017,05,22,12,09,24.80
2017,05,22,12,10,24.80
2017,05,22,12,11,24.70
2017,05,22,12,12,24.70
2017,05,22,12,13,24.80
2017,05,22,12,14,24.80
2017,05,22,12,15,24.90
2017,05,22,12,16,24.90
2017,05,22,12,17,25.00
2017,05,22,12,18,25.00
2017,05,22,12,19,25.10
2017,05,22,12,20,25.10
2017,05,22,12,21,25.10
2017,05,22,12,22,25.20
2017,05,22,12,23,25.20
2017,05,22,12,24,25.20
2017,05,22,12,25,25.30
2017,05,22,12,26,25.30
2017,05,22,12,27,25.40
2017,05,22,12,28,25.40
2017,05,22,12,29,25.40
2017,05,22,12,30,25.40
2017,05,22,12,31,25.40
2017,05,22,12,32,25.50
2017,05,22,12,33,25.50
2017,05,22,12,34,25.50
2017,05,22,12,35,25.60
2017,05,22,12,36,25.60
2017,05,22,12,37,25.60
2017,05,22,12,38,25.60
2017,05,22,12,39,25.60
2017,05,22,12,40,25.70
2017,05,22,12,41,25.80
2017,05,22,12,42,25.90
2017,05,22,12,43,25.90
2017,05,22,12,44,26.00
2017,05,22,12,45,26.00
2017,05,22,12,46,26.10
2017,05,22,12,47,26.20
2017,05,22,12,48,26.30
2017,05,22,12,49,26.30
2017,05,22,12,50,26.20
2017,05,22,12,51,26.20
2017,05,22,12,52,26.20
2017,05,22,12,53,26.20
2017,05,22,12,54,26.20
2017,05,22,12,55,26.30
2017,05,22,12,56,26.30
2017,05,22,12,57,26.30
2017,05,22,12,58,26.30
2017,05,22,12,59,26.40
2017,05,22,13,00,26.40
2017,05,22,13,01,26.40
2017,05,22,13,02,26.40
2017,05,22,13,03,26.40
2017,05,22,13,04,26.50
2017,05,22,13,05,26.50
2017,05,22,13,06,26.50
2017,05,22,13,07,26.40
2017,05,22,13,08,26.50
2017,05,22,13,09,26.50
2017,05,22,13,10,26.50
2017,05,22,13,11,26.40
2017,05,22,13,12,26.40
2017,05,22,13,13,26.30
2017,05,22,13,14,26.20
2017,05,22,13,15,26.20
2017,05,22,13,16,26.20
2017,05,22,13,17,26.20
2017,05,22,13,18,26.30
2017,05,22,13,19,26.30
2017,05,22,13,20,26.20
2017,05,22,13,21,26.20
2017,05,22,13,22,26.20
2017,05,22,13,23,26.20
2017,05,22,13,24,26.10
2017,05,22,13,25,26.00
2017,05,22,13,26,26.00
2017,05,22,13,27,25.90
2017,05,22,13,28,25.80
2017,05,22,13,29,25.70
2017,05,22,13,30,25.70
2017,05,22,13,31,25.70
2017,05,22,13,32,25.70
2017,05,22,13,33,25.80
2017,05,22,13,34,25.80
2017,05,22,13,35,25.80
2017,05,22,13,36,25.80
2017,05,22,13,37,25.90
2017,05,22,13,38,26.00
2017,05,22,13,39,26.10
2017,05,22,13,40,26.10
2017,05,22,13,41,26.20
2017,05,22,13,42,26.30
2017,05,22,13,43,26.30
2017,05,22,13,44,26.30
2017,05,22,13,45,26.30
2017,05,22,13,46,26.30
2017,05,22,13,47,26.40
2017,05,22,13,48,26.40
2017,05,22,13,49,26.50
2017,05,22,13,50,26.50
2017,05,22,13,51,26.40
2017,05,22,13,52,26.40
2017,05,22,13,53,26.30
2017,05,22,13,54,26.30
2017,05,22,13,55,26.20
2017,05,22,13,56,26.10
2017,05,22,13,57,26.10
2017,05,22,13,58,26.10
2017,05,22,13,59,26.10
2017,05,22,14,00,26.10
2017,05,22,14,01,26.20
2017,05,22,14,02,26.10
2017,05,22,14,03,26.00
2017,05,22,14,04,26.00
2017,05,22,14,05,25.90
2017,05,22,14,06,25.80
2017,05,22,14,07,25.80
2017,05,22,14,08,25.60
2017,05,22,14,09,25.60
2017,05,22,14,10,25.50
2017,05,22,14,11,25.50
2017,05,22,14,12,25.50
2017,05,22,14,13,25.50
2017,05,22,14,14,25.50
2017,05,22,14,15,25.60
2017,05,22,14,16,25.50
2017,05,22,14,17,25.50
2017,05,22,14,18,25.50
2017,05,22,14,19,25.40
2017,05,22,14,20,25.40
2017,05,22,14,21,25.40
2017,05,22,14,22,25.40
2017,05,22,14,23,25.40
2017,05,22,14,24,25.40
2017,05,22,14,25,25.40
2017,05,22,14,26,25.40
2017,05,22,14,27,25.40
2017,05,22,14,28,25.50
2017,05,22,14,29,25.70
2017,05,22,14,30,25.80
2017,05,22,14,31,25.90
2017,05,22,14,32,26.00
2017,05,22,14,33,26.10
2017,05,22,14,34,26.20
2017,05,22,14,35,26.20
2017,05,22,14,36,26.30
2017,05,22,14,37,26.30
2017,05,22,14,38,26.30
2017,05,22,14,39,26.40
2017,05,22,14,40,26.40
2017,05,22,14,41,26.40
2017,05,22,14,42,26.40
2017,05,22,14,43,26.40
2017,05,22,14,44,26.30
2017,05,22,14,45,26.20
2017,05,22,14,46,26.20
2017,05,22,14,47,26.10
2017,05,22,14,48,26.10
2017,05,22,14,49,26.10
2017,05,22,14,50,26.10
2017,05,22,14,51,26.10
2017,05,22,14,52,26.10
2017,05,22,14,53,26.10
2017,05,22,14,54,26.10
2017,05,22,14,55,26.10
2017,05,22,14,56,26.20
2017,05,22,14,57,26.20
2017,05,22,14,58,26.20
2017,05,22,14,59,26.20
2017,05,22,15,00,26.20
2017,05,22,15,01,26.20
2017,05,22,15,02,26.20
2017,05,22,15,03,26.20
2017,05,22,15,04,26.20
2017,05,22,15,05,26.30
2017,05,22,15,06,26.30
2017,05,22,15,07,26.30
2017,05,22,15,08,26.40
2017,05,22,15,09,26.30
2017,05,22,15,10,26.40
2017,05,22,15,11,26.40
2017,05,22,15,12,26.30
2017,05,22,15,13,26.30
2017,05,22,15,14,26.30
2017,05,22,15,15,26.30
2017,05,22,15,16,26.20
2017,05,22,15,17,26.20
2017,05,22,15,18,26.20
2017,05,22,15,19,26.30
2017,05,22,15,20,26.30
2017,05,22,15,21,26.30
2017,05,22,15,22,26.30
2017,05,22,15,23,26.40
2017,05,22,15,24,26.40
2017,05,22,15,25,26.40
2017,05,22,15,26,26.50
2017,05,22,15,27,26.50
2017,05,22,15,28,26.50
2017,05,22,15,29,26.50
2017,05,22,15,30,26.60
2017,05,22,15,31,26.60
2017,05,22,15,32,26.70
2017,05,22,15,33,26.60
2017,05,22,15,34,26.60
2017,05,22,15,35,26.60
2017,05,22,15,36,26.60
2017,05,22,15,37,26.60
2017,05,22,15,38,26.60
2017,05,22,15,39,26.60
2017,05,22,15,40,26.60
2017,05,22,15,41,26.60
2017,05,22,15,42,26.70
2017,05,22,15,43,26.70
2017,05,22,15,44,26.70
2017,05,22,15,45,26.70
2017,05,22,15,46,26.70
2017,05,22,15,47,26.70
2017,05,22,15,48,26.80
2017,05,22,15,49,26.80
2017,05,22,15,50,26.80
2017,05,22,15,51,26.90
2017,05,22,15,52,27.00
2017,05,22,15,53,27.00
2017,05,22,15,54,27.00
2017,05,22,15,55,27.10
2017,05,22,15,56,27.10
2017,05,22,15,57,27.10
2017,05,22,15,58,27.10
2017,05,22,15,59,27.10
2017,05,22,16,00,27.10
2017,05,22,16,01,27.10
2017,05,22,16,02,27.20
2017,05,22,16,03,27.30
2017,05,22,16,04,27.30
2017,05,22,16,05,27.40
2017,05,22,16,06,27.40
2017,05,22,16,07,27.50
2017,05,22,16,08,27.60
2017,05,22,16,09,27.70
2017,05,22,16,10,27.70
2017,05,22,16,11,27.80
2017,05,22,16,12,27.90
2017,05,22,16,13,28.00
2017,05,22,16,14,28.10
2017,05,22,16,15,28.20
2017,05,22,16,16,28.20
2017,05,22,16,17,28.20
2017,05,22,16,18,28.30
2017,05,22,16,19,28.30
2017,05,22,16,20,28.30
2017,05,22,16,21,28.30
2017,05,22,16,22,28.30
2017,05,22,16,23,28.30
2017,05,22,16,24,28.20
2017,05,22,16,25,28.10
2017,05,22,16,26,28.10
2017,05,22,16,27,28.00
2017,05,22,16,28,28.00
2017,05,22,16,29,27.90
2017,05,22,16,30,27.90
2017,05,22,16,31,27.90
2017,05,22,16,32,27.90
2017,05,22,16,33,27.90
2017,05,22,16,34,27.90
2017,05,22,16,35,28.00
2017,05,22,16,36,28.10
2017,05,22,16,37,28.10
2017,05,22,16,38,28.10
2017,05,22,16,39,28.20
2017,05,22,16,40,28.20
2017,05,22,16,41,28.30
2017,05,22,16,42,28.30
2017,05,22,16,43,28.40
2017,05,22,16,44,28.40
2017,05,22,16,45,28.50
2017,05,22,16,46,28.50
2017,05,22,16,47,28.50
2017,05,22,16,48,28.50
2017,05,22,16,49,28.50
2017,05,22,16,50,28.40
2017,05,22,16,51,28.40
2017,05,22,16,52,28.40
2017,05,22,16,53,28.30
2017,05,22,16,54,28.30
2017,05,22,16,55,28.30
2017,05,22,16,56,28.30
2017,05,22,16,57,28.30
2017,05,22,16,58,28.30
2017,05,22,16,59,28.30
2017,05,22,17,00,28.30
2017,05,22,17,01,28.30
2017,05,22,17,02,28.20
2017,05,22,17,03,28.20
2017,05,22,17,04,28.20
2017,05,22,17,05,28.20
2017,05,22,17,06,28.20
2017,05,22,17,07,28.20
2017,05,22,17,08,28.20
2017,05,22,17,09,28.20
2017,05,22,17,10,28.20
2017,05,22,17,11,28.20
2017,05,22,17,12,28.30
2017,05,22,17,13,28.30
2017,05,22,17,14,28.30
2017,05,22,17,15,28.30
2017,05,22,17,16,28.30
2017,05,22,17,17,28.20
2017,05,22,17,18,28.20
2017,05,22,17,19,28.20